Dewpoint
55 53 54 42 21 18 19 24 30 33 41 45 47 47 48 49 48 48 55 53 52 59 64 67 72 71 70 71 71 71 70 70 70 70 70 70 68 68 68 68 68 68 68 69 69 68 68 69 70
53 51 47 35 17 10 17 28 31 39 47 47 46 47 47 47 50 51 50 49 47 51 60 61 69 71 71 71 71 71 70 70 70 70 70 71 70 69 69 68 68 68 69 70 70 70 70 70 70
53 50 39 23 17 7 19 30 33 46 42 43 43 44 47 47 44 43 43 44 44 40 47 56 62 66 71 72 71 71 71 70 70 70 70 71 71 71 70 70 70 69 69 69 70 70 71 71 71
51 45 36 20 12 26 30 32 38 41 38 42 43 41 41 41 41 40 40 38 36 36 39 53 58 59 62 67 69 71 71 71 70 70 71 70 70 71 71 71 71 71 71 69 69 71 71 71 70
47 41 26 22 27 32 31 33 39 34 36 41 39 38 39 40 38 38 35 34 35 37 41 43 56 57 58 61 62 64 68 70 71 70 70 69 69 69 69 70 71 71 71 70 69 70 70 71 70
41 35 20 20 26 30 30 30 31 32 36 38 37 36 37 40 36 36 37 40 46 46 48 47 53 55 55 58 58 58 60 62 66 69 70 70 70 70 69 70 70 70 70 70 70 70 70 71 70
37 31 22 25 28 29 29 29 29 32 33 36 37 35 36 37 37 38 39 45 49 51 50 49 49 51 54 55 58 58 58 57 58 62 66 67 68 69 69 70 70 70 70 70 70 70 70 70 70
37 34 30 28 27 29 29 28 28 29 28 32 35 32 34 37 34 40 44 48 49 50 51 51 51 50 50 49 55 56 56 57 56 56 58 65 66 68 69 69 69 69 69 69 70 70 70 70 70
32 30 27 30 29 29 28 27 27 26 26 23 28 32 33 33 33 38 44 48 48 49 50 51 51 50 50 48 50 53 55 55 56 55 56 54 59 63 65 67 67 67 68 69 69 69 70 69 68
32 30 30 31 30 29 28 28 25 24 23 24 26 26 28 30 33 39 44 46 48 48 49 49 51 51 50 46 50 49 47 49 49 49 49 45 49 54 59 63 65 66 67 67 67 68 69 68 63
33 29 30 29 28 30 27 25 24 25 25 24 27 24 28 32 37 42 46 48 49 49 48 48 49 51 50 50 49 48 48 49 48 50 51 50 47 48 48 51 58 62 62 63 66 65 64 64 64
31 31 30 30 27 26 26 24 22 23 24 22 24 24 29 34 39 44 45 47 47 48 48 48 49 50 49 49 49 48 48 49 49 49 51 51 50 50 47 44 46 53 58 60 61 62 63 64 64
31 28 26 26 25 23 22 22 20 21 21 21 25 29 31 38 43 46 46 46 45 45 47 48 49 49 48 49 50 49 49 49 51 52 53 53 52 51 49 47 46 47 48 53 57 60 62 63 64
31 27 24 25 25 25 20 20 20 19 22 22 29 31 36 40 43 46 45 44 43 43 45 47 48 49 48 49 51 50 50 51 52 54 54 54 54 54 53 52 50 49 48 50 53 56 59 62 64
26 24 23 25 24 26 23 16 16 18 21 22 27 33 39 43 45 43 45 44 42 43 45 46 46 47 48 49 50 51 52 52 52 52 54 54 54 55 56 56 56 54 53 52 53 54 58 61 62
21 23 24 23 25 29 20 16 18 20 19 19 26 36 41 44 44 45 43 42 43 43 43 45 44 46 47 48 50 51 52 51 51 50 53 53 53 54 54 54 54 55 54 53 53 54 57 59 60
20 29 21 20 27 26 20 13 17 22 22 21 26 35 40 43 44 44 43 43 42 42 43 44 45 45 45 47 49 51 51 51 51 50 50 52 52 52 54 54 54 55 54 55 57 55 57 58 59
22 24 18 20 25 26 23 17 19 24 21 19 22 29 38 41 44 44 43 43 43 42 42 43 43 43 44 47 49 51 51 51 51 50 49 50 51 52 53 53 54 54 54 55 54 55 57 58 56
21 21 22 25 30 28 23 24 22 22 25 22 19 23 29 38 43 45 44 43 43 42 42 41 41 41 43 46 47 49 48 49 50 50 47 46 47 48 50 51 52 53 52 52 52 52 54 55 55
19 20 25 28 31 28 26 24 21 22 25 25 23 21 24 31 41 45 45 43 42 42 42 41 40 39 41 45 47 49 49 49 49 46 44 42 41 44 43 45 46 47 49 49 50 51 51 53 53
24 17 22 28 28 27 25 16 20 23 27 29 30 30 30 31 33 42 44 43 43 43 42 40 38 37 39 42 47 50 50 47 45 42 39 37 36 39 40 40 42 43 42 42 41 43 47 49 50
23 30 27 26 22 23 26 22 17 17 22 32 33 36 36 37 36 41 43 43 44 43 43 40 37 36 34 39 41 43 44 42 40 38 36 36 34 35 36 36 37 38 41 41 39 39 41 42 41
29 31 29 27 25 25 20 29 14 21 17 22 28 36 37 39 40 41 43 43 43 44 44 41 36 34 34 35 38 39 37 38 37 36 34 35 34 33 33 32 32 33 34 38 38 38 38 39 38
32 28 28 27 26 27 23 22 17 20 22 28 32 34 38 39 41 42 42 43 42 44 44 41 36 34 32 32 33 35 35 35 34 33 33 31 30 29 28 28 29 29 30 31 31 32 33 34 37
30 27 34 32 34 27 26 25 17 23 26 30 32 34 38 40 41 42 42 42 42 43 44 42 38 35 32 31 30 31 31 32 31 31 30 28 28 27 27 28 28 26 29 30 30 30 29 29 31
28 26 33 30 19 25 26 25 24 29 35 31 34 36 38 39 41 42 43 43 44 43 44 42 40 37 33 28 28 30 30 31 30 30 30 28 26 26 27 27 26 26 26 27 29 30 29 29 31
29 30 26 27 24 24 22 23 26 29 30 30 35 37 38 39 41 42 42 43 43 42 43 44 40 39 35 29 27 25 26 27 28 27 28 27 26 21 23 25 25 25 25 26 27 28 28 29 30
30 30 27 29 23 15 22 21 31 32 32 31 32 35 36 39 40 41 42 42 42 42 42 44 42 38 36 29 24 23 23 24 25 25 24 24 22 22 22 22 23 24 24 24 26 27 28 28 30
30 30 28 26 26 22 13 14 24 27 30 30 30 31 34 36 38 40 41 40 40 41 40 41 42 40 37 32 24 23 23 24 23 23 24 24 22 19 18 18 19 19 19 20 21 23 25 26 27
32 28 25 22 22 24 22 16 22 27 31 33 32 34 35 36 36 37 39 38 38 39 39 39 41 41 40 35 28 23 23 24 24 23 24 23 22 19 18 18 18 18 19 19 18 19 22 24 25
Lifted_Index
6 6 7 7 6 4 4 4 5 5 5 4 3 3 2 2 2 2 3 3 2 2 1 -1 -1 -2 -2 -2 -2 -2 -2 -2 -2 -2 -2 -2 -2 -1 -1 -0 -0 -1 -1 -1 -1 -1 -0 -0 -1
6 6 7 7 5 3 3 4 5 5 5 4 4 3 3 3 3 3 4 3 3 2 1 0 -1 -1 -1 -2 -2 -2 -2 -2 -2 -2 -2 -2 -2 -2 -1 -1 -1 -1 -1 -1 -1 -1 -1 -1 -1
6 7 7 6 5 3 4 5 5 5 5 5 5 4 4 4 4 5 6 5 3 2 2 1 0 -0 -1 -1 -1 -1 -2 -2 -2 -2 -2 -2 -2 -2 -2 -2 -1 -1 -1 -1 -1 -1 -1 -1 -1
6 7 7 6 4 4 5 5 6 5 5 5 5 5 5 5 6 8 9 8 5 3 3 2 1 1 0 -0 -0 -1 -1 -1 -1 -1 -1 -1 -1 -2 -2 -2 -2 -2 -1 -1 -1 -1 -2 -1 -1
7 7 6 5 4 5 6 6 6 6 6 6 6 6 6 6 9 11 12 11 9 7 6 5 4 3 2 1 1 0 0 -0 -1 -1 -1 -1 -1 -1 -1 -1 -1 -1 -1 -1 -1 -1 -1 -1 -1
7 7 5 4 4 5 6 7 7 7 7 6 6 7 7 8 10 12 13 13 12 11 10 9 7 6 4 3 2 2 2 1 1 0 -0 -0 -0 -1 -1 -1 -1 -1 -1 -1 -1 -1 -1 -1 -1
8 7 5 4 4 5 6 7 7 7 7 7 7 7 7 8 10 13 13 13 12 12 12 11 10 9 8 6 5 4 3 3 2 1 1 0 0 -0 -1 -1 -1 -1 -1 -1 -1 -1 -1 -1 -1
8 7 6 5 5 5 6 7 7 7 7 7 7 8 8 9 11 13 13 12 12 12 12 12 12 11 11 10 9 8 6 5 4 3 2 1 1 0 -0 -1 -1 -1 -1 -1 -1 -1 -1 -1 -1
9 7 6 5 5 6 7 7 7 7 7 7 8 8 9 10 11 12 12 12 11 12 12 12 12 12 12 12 11 10 9 9 7 6 4 3 2 1 0 0 -0 -0 -1 -1 -1 -1 -1 -1 -1
8 7 7 7 7 7 7 7 7 7 7 7 8 9 10 10 11 12 12 11 11 12 12 12 12 12 12 12 11 11 11 10 9 8 8 6 5 4 3 2 1 0 0 -0 -1 -1 -1 -1 -1
8 8 8 7 7 7 7 7 7 7 7 7 8 9 10 11 12 12 11 11 11 12 12 12 12 12 12 11 11 10 10 10 10 10 9 9 8 7 6 5 4 2 1 1 0 -0 -1 -1 -1
8 8 8 8 7 7 7 7 7 7 7 8 9 10 11 12 12 11 11 11 12 12 12 12 12 12 11 11 11 10 10 10 10 10 9 9 9 9 9 8 7 6 4 3 2 1 -0 -0 -1
8 8 8 7 7 7 7 7 7 7 8 9 10 11 12 12 11 11 11 12 12 12 12 12 12 11 11 11 11 11 10 10 10 10 9 9 9 9 9 9 9 8 6 5 4 2 1 0 -0
9 8 8 7 7 7 7 7 7 8 9 10 11 12 12 11 11 11 11 11 11 11 11 11 11 11 11 11 11 11 11 10 10 10 9 9 8 8 8 8 8 7 7 6 5 3 2 1 0
8 8 7 7 7 7 7 7 8 9 10 10 11 11 11 11 10 10 11 11 11 11 11 11 11 11 12 12 12 11 11 11 10 10 10 9 9 8 7 7 6 6 6 5 5 4 3 1 1
8 7 7 7 7 8 7 7 8 9 10 10 10 10 10 10 10 10 11 11 11 11 11 11 11 12 12 12 12 11 11 11 11 10 10 10 9 8 7 6 6 5 5 4 4 4 3 2 1
6 6 6 7 7 8 7 7 8 9 10 9 9 9 10 10 10 10 11 11 11 11 11 11 11 12 13 13 12 11 10 10 10 10 10 10 9 8 7 7 6 5 5 5 4 4 3 3 2
5 5 6 6 7 8 8 8 8 9 9 9 9 9 9 9 10 10 11 11 11 11 11 11 11 12 12 12 11 10 10 10 10 9 9 9 9 8 8 7 7 7 6 6 5 5 4 3 3
5 5 6 7 8 8 8 8 8 9 8 8 8 8 9 9 10 10 11 11 11 11 11 11 11 12 12 11 11 10 10 9 9 9 9 9 8 8 8 8 8 8 7 7 7 6 5 4 4
6 5 6 7 8 9 8 8 8 8 8 8 8 8 9 9 10 11 11 11 11 11 11 11 11 11 11 11 11 10 10 9 9 9 9 9 9 9 8 9 9 8 8 8 7 7 6 6 6
6 6 6 7 8 8 7 6 6 7 7 7 8 8 9 9 10 11 11 11 10 10 10 10 11 11 11 11 10 10 10 10 10 10 10 10 10 10 10 10 10 10 10 9 9 8 8 7 7
7 7 7 7 7 6 6 5 5 6 6 6 7 8 9 9 10 10 10 10 10 10 10 10 11 11 11 11 10 10 10 10 10 10 10 11 11 12 12 12 13 13 12 12 11 10 10 9 8
7 8 7 7 6 5 5 4 4 4 5 6 7 8 9 9 9 9 9 9 9 9 10 10 11 11 11 11 10 10 11 11 11 12 12 13 14 14 15 15 16 16 16 16 15 14 13 12 12
7 7 6 5 4 4 4 4 3 4 5 6 7 8 8 8 8 8 8 8 8 9 10 10 11 11 11 11 11 11 12 13 13 14 15 15 16 17 17 18 18 19 19 19 18 17 17 16 16
7 6 4 3 2 2 3 3 4 5 6 7 7 7 7 7 7 7 8 8 8 9 10 10 10 10 11 11 12 13 15 15 16 16 16 17 17 18 18 19 20 20 20 20 19 19 19 18 18
6 5 3 2 1 2 3 3 4 6 7 7 7 7 7 7 7 8 8 8 8 9 9 10 10 11 12 13 14 15 16 16 16 16 17 17 17 18 19 20 20 20 20 20 19 19 19 19 18
6 5 4 3 2 2 2 3 5 6 7 7 7 7 8 8 8 8 9 9 9 9 9 10 10 12 13 14 15 16 16 16 16 16 16 17 17 18 19 20 20 20 20 20 19 19 19 19 19
6 6 5 4 2 1 2 3 4 5 6 6 7 7 8 9 9 9 9 10 10 10 10 10 11 12 14 14 15 15 15 16 16 16 16 16 17 18 19 20 20 20 20 19 19 18 18 18 18
6 6 5 4 3 1 1 3 4 6 6 6 6 7 8 9 9 9 10 10 10 10 10 10 11 12 13 14 15 15 15 15 15 15 15 15 16 17 18 19 20 20 20 19 19 18 18 18 18
6 6 5 4 3 2 2 3 5 6 6 6 7 7 8 8 9 9 9 9 10 10 10 11 11 12 13 14 14 15 15 15 15 15 15 15 16 17 18 19 20 20 20 19 19 19 18 18 18